Regional Weather Roundup
Issued by NWS Burlington, VT

Home | Current Version | Previous Version | Text Only | Print | Product List | Glossary On
Versions: 1 2 3 4 5 6 7 8 9 10 11 12 13 14 15 16 17 18 19 20 21 22 23 24 25 26 27 28 29 30 31 32 33 34 35 36 37 38 39 40 41 42 43 44 45 46 47 48 49 50
000
ASUS41 KBTV 040630
RWRBTV
VERMONT REGIONAL WEATHER ROUNDUP
NATIONAL WEATHER SERVICE BURLINGTON VT
200 AM EDT MON MAY 04 2015

NOTE: "FAIR" INDICATES FEW OR NO CLOUDS BELOW 12,000 FEET WITH NO
SIGNIFICANT WEATHER AND/OR OBSTRUCTIONS TO VISIBILITY.

* THESE REPORTS ARE NOT UNDER NWS QUALITY CONTROL AND/OR DO NOT
  REPORT WEATHER SUCH AS PRECIPITATION AND FOG.

VTZ001>019-040700-
_____VERMONT_____


CITY           SKY/WX    TMP DP  RH WIND       PRES   REMARKS
BURLINGTON     CLEAR     54  42  64 E3        30.07S
6HR MIN TEMP:  53; 6HR MAX TEMP:  73;

MONTPELIER     CLEAR     50  38  63 CALM      30.14S
6HR MIN TEMP:  47; 6HR MAX TEMP:  63;

MORRISVILLE    CLEAR     45  40  82 CALM      30.11R
6HR MIN TEMP:  44; 6HR MAX TEMP:  64;

ST. JOHNSBURY*   N/A     47  41  80 MISG      30.09R
6HR MIN TEMP:  47; 6HR MAX TEMP:  67;

LYNDONVILLE*     N/A     48  36  63 CALM      30.12S
6HR MIN TEMP:  48; 6HR MAX TEMP:  69;

MIDDLEBURY*    MOCLDY    52  41  67 SE3       30.09S
6HR MIN TEMP:  51; 6HR MAX TEMP:  67;

RUTLAND*       CLEAR     52  36  54 SE12      30.12S
6HR MIN TEMP:  50; 6HR MAX TEMP:  70;

SPRINGFIELD    CLEAR     46  42  86 CALM      30.13S
6HR MIN TEMP:  46; 6HR MAX TEMP:  64;

HIGHGATE*        N/A     51  42  70 SE5       30.05S
6HR MIN TEMP:  50; 6HR MAX TEMP:  68;

NEWPORT*         N/A     46  38  74 CALM      30.10R
6HR MIN TEMP:  46; 6HR MAX TEMP:  67;

BENNINGTON     CLEAR     50  39  66 CALM      30.13S
6HR MIN TEMP:  48; 6HR MAX TEMP:  64;

SUTTON*          N/A     52 N/A N/A MISG        N/A
MT. MANSFIELD*   N/A     50 N/A N/A CALM        N/A

_____LAKE CHAMPLAIN_____


CITY           SKY/WX    TMP DP  RH WIND       PRES   REMARKS
BURTON ISLAND*   N/A     57  45  62 S8          N/A
COLCHESTER RF*   N/A     50  39  66 S8          N/A
DIAMOND ISL*     N/A     57  43  58 SW1         N/A

$$

NYZ007-026>031-035-052-083-040700-
_____NORTHERN NEW YORK_____


CITY           SKY/WX    TMP DP  RH WIND       PRES   REMARKS
PLATTSBURGH    CLEAR     48  42  80 S3        30.05S
6HR MIN TEMP:  48; 6HR MAX TEMP:  64; 6HR PCP: TRACE;

SARANAC LAKE   CLEAR     36  34  92 NE3       30.10S
6HR MIN TEMP:  36; 6HR MAX TEMP:  65;

MASSENA        CLEAR     58  39  49 SW7       30.05S
6HR MIN TEMP:  57; 6HR MAX TEMP:  69;

OGDENSBURG*    CLEAR     57  43  58 S5        30.04S
POTSDAM*       CLEAR     61  43  51 SW7       30.06S
WATERTOWN      CLEAR     60  39  45 S7        30.06F
6HR MIN TEMP:  60; 6HR MAX TEMP:  69;

FT DRUM        CLEAR     60  42  51 S9        30.07S
6HR MIN TEMP:  60; 6HR MAX TEMP:  67;

ALBANY         PTCLDY    60  39  45 S7        30.12S
6HR MIN TEMP:  54; 6HR MAX TEMP:  72;

GLENS FALLS    PTCLDY    48  42  80 W3        30.11R
6HR MIN TEMP:  46; 6HR MAX TEMP:  68;


$$
NHZ002-005-011-040700-
_____NEW HAMPSHIRE_____


CITY           SKY/WX    TMP DP  RH WIND       PRES   REMARKS
LEBANON        CLEAR     42  37  82 CALM      30.12R
6HR MIN TEMP:  42; 6HR MAX TEMP:  63;

KEENE          CLEAR     48  43  81 CALM      30.15R
6HR MIN TEMP:  48; 6HR MAX TEMP:  66;

MT WASHINGTON  PTCLDY    41  30  65 W28         N/A
6HR MIN TEMP:  40; 6HR MAX TEMP:  42;

PLYMOUTH         N/A     43  43 100 CALM      30.13R
6HR MIN TEMP:  44; 6HR MAX TEMP:  64;

WHITEFIELD     CLEAR     41  36  82 CALM      30.11R
6HR MIN TEMP:  40; 6HR MAX TEMP:  60;


$$

_____REGIONAL QUEBEC LOCATIONS_____


CITY           SKY/WX    TMP DP  RH WIND       PRES   REMARKS
MONTREAL       PTCLDY    57  41  54 S5        30.02F
QUEBEC CITY    CLEAR     50  39  66 NE2       30.01S
SHERBROOKE     CLEAR     43  37  81 E5        30.07R

_____REGIONAL ONTARIO LOCATIONS_____


CITY           SKY/WX    TMP DP  RH WIND       PRES   REMARKS
OTTAWA         PTCLDY    57  43  58 S5        30.02S

______KEY______
VSB  - VISIBILITY IN MILES
WCI  - WIND CHILL INDEX
HX   - HEAT INDEX
$$
NNNN


USA.gov is the U.S. government's official web portal to all federal, state and local government web resources and services.